Hourly Weather Ruchevaha

Today, 23 July, Friday

Time Temperature Precipitation Wind Pressure Humidity
00:00 +13°C° 0 mm 2 mps 737 mmHg 73%
01:00 +13°C° 0 mm 3 mps 736 mmHg 71%
02:00 +13°C° 0 mm 3 mps 736 mmHg 69%
03:00 +13°C° 0 mm 3 mps 736 mmHg 72%
04:00 +13°C° 0 mm 3 mps 735 mmHg 76%
05:00 +13°C° 0 mm 3 mps 735 mmHg 79%
06:00 +15°C° 0 mm 4 mps 735 mmHg 73%
07:00 +17°C° 0 mm 4 mps 735 mmHg 67%
08:00 +19°C° 0 mm 5 mps 735 mmHg 60%
09:00 +19°C° 0 mm 5 mps 735 mmHg 57%
10:00 +20°C° 0 mm 5 mps 735 mmHg 54%
11:00 +20°C° 0 mm 4 mps 735 mmHg 50%
12:00 +20°C° 0 mm 4 mps 735 mmHg 51%
13:00 +20°C° 0 mm 4 mps 735 mmHg 51%
14:00 +21°C° 0 mm 4 mps 735 mmHg 51%
15:00 +20°C° 0 mm 4 mps 735 mmHg 53%
16:00 +20°C° 0 mm 4 mps 735 mmHg 55%
17:00 +19°C° 0 mm 4 mps 736 mmHg 57%
18:00 +18°C° 0 mm 3 mps 736 mmHg 61%
19:00 +17°C° 0 mm 2 mps 736 mmHg 66%
20:00 +15°C° 0 mm 2 mps 736 mmHg 71%
21:00 +14°C° 0 mm 2 mps 737 mmHg 76%
22:00 +13°C° 0 mm 2 mps 737 mmHg 81%
23:00 +12°C° 0 mm 2 mps 737 mmHg 86%

Tomorrow, 24 July, Saturday

Time Temperature Precipitation Wind Pressure Humidity
00:00 +12°C° 0 mm 2 mps 737 mmHg 85%
01:00 +12°C° 0 mm 1 mps 738 mmHg 83%
02:00 +12°C° 0 mm 1 mps 738 mmHg 82%
03:00 +13°C° 0 mm 1 mps 738 mmHg 80%
04:00 +13°C° 0 mm 1 mps 738 mmHg 77%
05:00 +13°C° 0 mm 1 mps 739 mmHg 75%
06:00 +14°C° 0 mm 1 mps 739 mmHg 70%
07:00 +15°C° 0 mm 1 mps 739 mmHg 66%
08:00 +15°C° 0 mm 1 mps 740 mmHg 61%
09:00 +17°C° 0 mm 2 mps 740 mmHg 54%
10:00 +19°C° 0 mm 2 mps 740 mmHg 46%
11:00 +20°C° 0 mm 2 mps 740 mmHg 39%
12:00 +20°C° 0 mm 2 mps 740 mmHg 40%
13:00 +20°C° 0 mm 2 mps 741 mmHg 41%
14:00 +20°C° 0 mm 2 mps 741 mmHg 42%
15:00 +20°C° 0 mm 2 mps 741 mmHg 42%
16:00 +20°C° 0 mm 2 mps 741 mmHg 42%
17:00 +20°C° 0 mm 2 mps 741 mmHg 43%
18:00 +19°C° 0 mm 2 mps 741 mmHg 50%
19:00 +18°C° 0 mm 1 mps 741 mmHg 57%
20:00 +15°C° 0 mm 1 mps 742 mmHg 64%
21:00 +15°C° 0 mm 1 mps 742 mmHg 65%
22:00 +14°C° 0 mm 1 mps 742 mmHg 66%
23:00 +12°C° 0 mm 0 mps 742 mmHg 67%

Day after tomorrow, 25 July, Sunday

Time Temperature Precipitation Wind Pressure Humidity
00:00 +12°C° 0 mm 0 mps 743 mmHg 67%
01:00 +12°C° 0 mm 0 mps 743 mmHg 66%
02:00 +13°C° 0 mm 0 mps 743 mmHg 66%
03:00 +13°C° 0 mm 0 mps 743 mmHg 66%
04:00 +13°C° 0 mm 0 mps 743 mmHg 67%
05:00 +13°C° 0 mm 0 mps 744 mmHg 68%
06:00 +15°C° 0 mm 0 mps 744 mmHg 61%
07:00 +17°C° 0 mm 0 mps 744 mmHg 54%
08:00 +19°C° 0 mm 0 mps 744 mmHg 47%
09:00 +21°C° 0 mm 0 mps 744 mmHg 42%
10:00 +22°C° 0 mm 0 mps 744 mmHg 38%
11:00 +23°C° 0 mm 0 mps 744 mmHg 34%
12:00 +24°C° 0 mm 0 mps 744 mmHg 33%
13:00 +24°C° 0 mm 0 mps 744 mmHg 32%
14:00 +24°C° 0 mm 0 mps 744 mmHg 32%
15:00 +26°C° 0 mm 1 mps 744 mmHg 35%
16:00 +25°C° 0 mm 1 mps 744 mmHg 38%
17:00 +25°C° 0 mm 1 mps 744 mmHg 41%
18:00 +23°C° 0 mm 1 mps 744 mmHg 47%
19:00 +22°C° 0 mm 1 mps 744 mmHg 53%
20:00 +20°C° 0 mm 1 mps 745 mmHg 59%
21:00 +19°C° 0 mm 1 mps 745 mmHg 60%
22:00 +19°C° 0 mm 1 mps 745 mmHg 60%
23:00 +19°C° 0 mm 1 mps 745 mmHg 61%

26 July, Monday

Time Temperature Precipitation Wind Pressure Humidity
00:00 +18°C° 0 mm 1 mps 745 mmHg 61%
01:00 +18°C° 0 mm 1 mps 746 mmHg 61%
02:00 +18°C° 0 mm 1 mps 746 mmHg 61%
03:00 +18°C° 0 mm 1 mps 746 mmHg 62%
04:00 +18°C° 0 mm 1 mps 746 mmHg 63%
05:00 +18°C° 0 mm 1 mps 746 mmHg 64%
06:00 +19°C° 0 mm 1 mps 746 mmHg 63%
07:00 +20°C° 0 mm 1 mps 746 mmHg 61%
08:00 +21°C° 0 mm 1 mps 747 mmHg 60%
09:00 +23°C° 0 mm 1 mps 747 mmHg 55%
10:00 +24°C° 0 mm 1 mps 747 mmHg 50%
11:00 +26°C° 0 mm 1 mps 747 mmHg 45%
12:00 +26°C° 0 mm 1 mps 747 mmHg 45%
13:00 +26°C° 0 mm 1 mps 746 mmHg 45%
14:00 +26°C° 0 mm 1 mps 746 mmHg 46%
15:00 +25°C° 0 mm 1 mps 746 mmHg 49%
16:00 +24°C° 0 mm 1 mps 746 mmHg 52%
17:00 +23°C° 0 mm 1 mps 746 mmHg 56%
18:00 +22°C° 0 mm 1 mps 746 mmHg 58%
19:00 +21°C° 0 mm 1 mps 746 mmHg 61%
20:00 +21°C° 0 mm 1 mps 746 mmHg 63%
21:00 +20°C° 0 mm 1 mps 746 mmHg 66%
22:00 +19°C° 0 mm 1 mps 746 mmHg 69%
23:00 +18°C° 0 mm 1 mps 746 mmHg 72%

27 July, Tuesday

Time Temperature Precipitation Wind Pressure Humidity
00:00 +18°C° 0 mm 1 mps 746 mmHg 75%
01:00 +16°C° 0 mm 1 mps 746 mmHg 78%
02:00 +16°C° 0 mm 1 mps 746 mmHg 81%
03:00 +16°C° 0 mm 1 mps 746 mmHg 81%
04:00 +16°C° 0 mm 1 mps 747 mmHg 82%
05:00 +16°C° 0 mm 1 mps 747 mmHg 83%
06:00 +19°C° 0 mm 1 mps 747 mmHg 75%
07:00 +21°C° 0 mm 1 mps 747 mmHg 68%
08:00 +23°C° 0 mm 1 mps 747 mmHg 61%
09:00 +25°C° 0 mm 1 mps 747 mmHg 54%
10:00 +27°C° 0 mm 2 mps 746 mmHg 47%
11:00 +28°C° 0 mm 2 mps 746 mmHg 41%
12:00 +28°C° 0 mm 2 mps 746 mmHg 42%
13:00 +28°C° 0 mm 3 mps 746 mmHg 43%
14:00 +27°C° 0 mm 3 mps 745 mmHg 44%
15:00 +27°C° 0 mm 2 mps 745 mmHg 47%
16:00 +27°C° 0 mm 2 mps 745 mmHg 50%
17:00 +26°C° 0 mm 1 mps 745 mmHg 53%
18:00 +25°C° 0 mm 2 mps 745 mmHg 57%
19:00 +24°C° 0 mm 2 mps 744 mmHg 61%
20:00 +21°C° 0 mm 2 mps 744 mmHg 65%
21:00 +21°C° 0 mm 2 mps 744 mmHg 69%
22:00 +20°C° 0 mm 2 mps 744 mmHg 72%
23:00 +19°C° 0 mm 2 mps 744 mmHg 75%

28 July, Wednesday

Time Temperature Precipitation Wind Pressure Humidity
00:00 +19°C° 0 mm 2 mps 744 mmHg 76%
01:00 +18°C° 0 mm 2 mps 743 mmHg 78%
02:00 +18°C° 0 mm 2 mps 743 mmHg 79%
03:00 +17°C° 0 mm 2 mps 743 mmHg 78%
04:00 +17°C° 0 mm 2 mps 743 mmHg 77%
05:00 +17°C° 0 mm 2 mps 742 mmHg 76%
06:00 +19°C° 0 mm 3 mps 742 mmHg 70%
07:00 +20°C° 0 mm 3 mps 742 mmHg 64%
08:00 +22°C° 0 mm 4 mps 741 mmHg 58%
09:00 +23°C° 0 mm 4 mps 741 mmHg 55%
10:00 +25°C° 0 mm 4 mps 741 mmHg 52%
11:00 +27°C° 0 mm 5 mps 740 mmHg 49%
12:00 +27°C° 0 mm 5 mps 740 mmHg 50%
13:00 +27°C° 0 mm 5 mps 739 mmHg 51%
14:00 +27°C° 0 mm 5 mps 739 mmHg 52%
15:00 +25°C° 0 mm 5 mps 739 mmHg 60%
16:00 +22°C° 0 mm 4 mps 738 mmHg 67%
17:00 +21°C° 0 mm 4 mps 738 mmHg 75%
18:00 +20°C° 0.1 mm 4 mps 737 mmHg 78%
19:00 +19°C° 0.1 mm 4 mps 737 mmHg 80%
20:00 +19°C° 0.1 mm 4 mps 736 mmHg 82%
21:00 +18°C° 0.4 mm 4 mps 735 mmHg 86%
22:00 +18°C° 0.4 mm 4 mps 735 mmHg 91%
23:00 +17°C° 0.4 mm 4 mps 734 mmHg 96%
Show more

We Need Your Consent

Meteoprog and our Service Providers may store and access personal data such as cookies, device identifiers or other similar technologies on your device and process such data to personalise content and ads, as well as provide social media features and to analyse the traffic.

  • Store and/or access information on your device

    Cookies, device identifiers or other information can be stored or accessed on your device for the purposes indicated above.

  • Personalised ads and content, ad and content measurement, audience insights, and products development

    Ads and content can be personalised based on a profile. More data can be added to better personalise ads and content. Ad and content performance can be measured. Insights about the audience who saw the ads and content can be derived. Such data can be used to develop or improve user’s experience, systems and software.

By clicking ‘I Agree’ you will allow the use of indicated cookies, device identifiers, web beacons or other similar technologies. Your settings can be changed in the browser on your device.

For certain purposes, legitimate interests may be relied on, rather than consent. You can read more about this in our Privacy and Cookie Policy.